Tracking 35331 objects as of 14-Sep-2026
HD Live streaming from Space Station
objects crossing your sky now

ICEYE-X30


ICEYE-X30 is no longer on orbit
ICEYE-X30 is classified as:


NORAD ID: 56947
Int'l Code: 2023-084R
Launch date: June 12, 2023
Source: United States (US)
Launch site: AIR FORCE WESTERN TEST RANGE (AFWTR)
Decay date: 2026-05-23

Uplink (MHz):
Downlink (MHz): 2275.920
Beacon (MHz):
Mode: 400k BPSK
Call sign:
Status: Inactive

Your satellite tracking list
Your tracking list is empty




NASA's NSSDC Master Catalog

Two Line Element Set (TLE):
1 56947U 23084R   26143.38323289  .14366460  26620-5  36953-3 0  9992
2 56947  97.5435 302.7258 0012790 274.1156  85.8683 16.44816394165060
Source of the keplerian elements: AFSPC